Weather History for KLHZ - January, 2013

Change the Weather History Date:

Monday, January 21, 2013

  Actual Average (KRDU) Record (KRDU)
Temperature  
Mean Temperature 44 °F 41 °F  
Max Temperature 57 °F 51 °F 75 °F (1933)
Min Temperature 32 °F 31 °F -9 °F (1985)
Degree Days  
Heating Degree Days 20 24  
Month to date heating degree days 510  
Since 1 July heating degree days 1761  
Cooling Degree Days 0 0  
Month to date cooling degree days 0  
Year to date cooling degree days 0  
Moisture  
Dew Point 26 °F    
Average Humidity 47    
Maximum Humidity 100    
Minimum Humidity 27    
Precipitation  
Precipitation 0.00 in 0.11 in 1.44 in (1979)
Month to date precipitation 2.38  
Year to date precipitation 2.38  
Snow  
Snow 0.00 in 0.10 in 1.20 in (1961)
Month to date snowfall 1.9  
Since 1 July snowfall 2.6  
Snow Depth -    
Sea Level Pressure  
Sea Level Pressure 29.98 in    
Wind  
Wind Speed 2 mph (SW)    
Max Wind Speed 10 mph    
Max Gust Speed -    
Visibility 10 miles    
Events      
T = Trace of Precipitation, MM = Missing Value Source: NWS Daily Summary

Daily Weather History Graph

Daily Weather History Graph

Search for Another Location

Airport or City:

Trip Planner

Search our weather history database for the weather conditions in past years. The results will help you decide how hot, cold, wet, or windy it might be!

Date:

Astronomy

Jan. 21, 2013 Rise Set
Actual Time 7:20 AM EST 5:28 PM EST
Civil Twilight 6:53 AM EST 5:56 PM EST
Nautical Twilight 6:22 AM EST 6:27 PM EST
Astronomical Twilight 5:51 AM EST 6:58 PM EST
Moon 1:08 PM EST (1/21) 2:47 AM EST (1/21)
Length of Visible Light 11h 03m
Length of Day
10h 08m
Waxing Gibbous, 75% of the Moon is Illuminated
Jan 21
Waxing Gibbous
Jan 26
Full
Feb 3
Last Quarter
Feb 10
New
Feb 17
First Quarter

Hourly Weather History & Observations

Time (EST) Temp. Windchill Dew Point Humidity Pressure Visibility Wind Dir Wind Speed Gust Speed Precip Events Conditions
12:15 AM 39.2 °F - 28.4 °F 65% 30.09 in 10.0 mi Calm Calm - N/A   Clear
12:35 AM 39.2 °F - 30.2 °F 70% 30.09 in 10.0 mi Calm Calm - N/A   Clear
12:55 AM 37.4 °F - 30.2 °F 75% 30.09 in 10.0 mi Calm Calm - N/A   Clear
1:15 AM 35.6 °F - 30.2 °F 81% 30.08 in 10.0 mi Calm Calm - N/A   Clear
1:35 AM 33.8 °F - 30.2 °F 87% 30.08 in 10.0 mi Calm Calm - N/A   Clear
1:55 AM 33.8 °F - 30.2 °F 87% 30.08 in 10.0 mi Calm Calm - N/A   Clear
2:15 AM 32.0 °F - 30.2 °F 93% 30.08 in 10.0 mi Calm Calm - N/A   Clear
2:35 AM 32.0 °F - 32.0 °F 100% 30.08 in 10.0 mi Calm Calm - N/A   Clear
2:55 AM - - - N/A% 30.08 in 10.0 mi Calm Calm - N/A   Clear
3:35 AM - - - N/A% 30.08 in 10.0 mi Calm Calm - N/A   Clear
3:55 AM - - - N/A% 30.07 in 10.0 mi Calm Calm - N/A   Clear
4:15 AM - - - N/A% 30.07 in 10.0 mi Calm Calm - N/A   Clear
4:35 AM - - - N/A% 30.07 in 10.0 mi Calm Calm - N/A   Clear
4:55 AM - - - N/A% 30.06 in 10.0 mi Calm Calm - N/A   Clear
6:35 AM - - - N/A% 30.07 in 10.0 mi Calm Calm - N/A   Clear
8:35 AM - - - N/A% 30.08 in 10.0 mi Calm Calm - N/A   Clear
8:55 AM 35.6 °F - 32.0 °F 87% 30.08 in 10.0 mi Calm Calm - N/A   Clear
9:15 AM 37.4 °F - 32.0 °F 81% 30.08 in 10.0 mi Calm Calm - N/A   Clear
9:35 AM 42.8 °F 41.1 °F 30.2 °F 61% 30.08 in 10.0 mi ESE 3.5 mph - N/A   Clear
9:55 AM 42.8 °F 40.1 °F 32.0 °F 66% 30.08 in 10.0 mi SE 4.6 mph - N/A   Clear
10:15 AM 44.6 °F 43.1 °F 32.0 °F 61% 30.07 in 10.0 mi SE 3.5 mph - N/A   Clear
10:35 AM 46.4 °F 41.5 °F 32.0 °F 57% 30.06 in 10.0 mi SSE 10.4 mph - N/A   Clear
10:55 AM 48.2 °F - 30.2 °F 50% 30.06 in 10.0 mi Calm Calm - N/A   Clear
11:15 AM 50.0 °F - 28.4 °F 43% 30.05 in 10.0 mi SSE 4.6 mph - N/A   Clear
11:35 AM 51.8 °F - 26.6 °F 38% 30.03 in 10.0 mi SSE 3.5 mph - N/A   Clear
11:55 AM 53.6 °F - 26.6 °F 35% 30.02 in 10.0 mi South 8.1 mph - N/A   Clear
12:15 PM 53.6 °F - 26.6 °F 35% 30.00 in 10.0 mi SSE 5.8 mph - N/A   Clear
12:35 PM 53.6 °F - 26.6 °F 35% 29.98 in 10.0 mi South 8.1 mph - N/A   Clear
12:55 PM 55.4 °F - 26.6 °F 33% 29.97 in 10.0 mi South 6.9 mph - N/A   Clear
1:15 PM 55.4 °F - 26.6 °F 33% 29.96 in 10.0 mi SSW 4.6 mph - N/A   Clear
1:35 PM 55.4 °F - 23.0 °F 29% 29.95 in 10.0 mi SW 5.8 mph - N/A   Clear
1:55 PM 57.2 °F - 23.0 °F 27% 29.94 in 10.0 mi SW 3.5 mph - N/A   Clear
2:15 PM 57.2 °F - 23.0 °F 27% 29.92 in 10.0 mi WSW 5.8 mph - N/A   Clear
2:35 PM 57.2 °F - 23.0 °F 27% 29.92 in 10.0 mi SW 4.6 mph - N/A   Clear
2:55 PM 57.2 °F - 24.8 °F 29% 29.90 in 10.0 mi SSW 9.2 mph - N/A   Clear
3:15 PM 57.2 °F - 24.8 °F 29% 29.90 in 10.0 mi SW 8.1 mph - N/A   Clear
3:35 PM 57.2 °F - 26.6 °F 31% 29.89 in 10.0 mi SW 5.8 mph - N/A   Clear
3:55 PM 57.2 °F - 26.6 °F 31% 29.89 in 10.0 mi SW 6.9 mph - N/A   Clear
4:15 PM 57.2 °F - 26.6 °F 31% 29.89 in 10.0 mi SW 4.6 mph - N/A   Clear
4:35 PM 55.4 °F - 26.6 °F 33% 29.88 in 10.0 mi Calm Calm - N/A   Clear
4:55 PM 55.4 °F - 28.4 °F 36% 29.87 in 10.0 mi SW 3.5 mph - N/A   Clear
5:15 PM 53.6 °F - 28.4 °F 38% 29.87 in 10.0 mi SW 3.5 mph - N/A   Clear
5:35 PM 51.8 °F - 28.4 °F 41% 29.86 in 10.0 mi Calm Calm - N/A   Clear
5:55 PM 50.0 °F - 30.2 °F 47% 29.86 in 10.0 mi Calm Calm - N/A   Clear
6:15 PM 46.4 °F - 30.2 °F 53% 29.87 in 10.0 mi Calm Calm - N/A   Clear
6:35 PM 50.0 °F - 30.2 °F 47% 29.87 in 10.0 mi SSW 3.5 mph - N/A   Clear
6:55 PM 46.4 °F - 30.2 °F 53% 29.87 in 10.0 mi Calm Calm - N/A   Clear
7:15 PM 48.2 °F - 30.2 °F 50% 29.87 in 10.0 mi Calm Calm - N/A   Clear
7:55 PM 50.0 °F - 28.4 °F 43% 29.89 in 10.0 mi WSW 3.5 mph - N/A   Clear
8:15 PM 48.2 °F - 28.4 °F 46% 29.90 in 10.0 mi Calm Calm - N/A   Clear
8:35 PM 48.2 °F - 28.4 °F 46% 29.90 in 10.0 mi West 4.6 mph - N/A   Clear
8:55 PM 48.2 °F - 24.8 °F 40% 29.92 in 10.0 mi West 8.1 mph - N/A   Clear
9:15 PM 48.2 °F - 21.2 °F 34% 29.92 in 10.0 mi Calm Calm - N/A   Clear
9:35 PM 46.4 °F - 21.2 °F 37% 29.93 in 10.0 mi Calm Calm - N/A   Clear
9:55 PM 46.4 °F 42.4 °F 19.4 °F 34% 29.93 in 10.0 mi WNW 8.1 mph - N/A   Clear
10:15 PM 46.4 °F 45.2 °F 17.6 °F 32% 29.94 in 10.0 mi West 3.5 mph - N/A   Clear
10:35 PM 44.6 °F 41.4 °F 17.6 °F 34% 29.95 in 10.0 mi WNW 5.8 mph - N/A   Clear
10:55 PM 44.6 °F 43.1 °F 17.6 °F 34% 29.95 in 10.0 mi WNW 3.5 mph - N/A   Clear
11:15 PM 42.8 °F 41.1 °F 15.8 °F 34% 29.95 in 10.0 mi West 3.5 mph - N/A   Clear
11:35 PM 42.8 °F 41.1 °F 15.8 °F 34% 29.95 in 10.0 mi West 3.5 mph - N/A   Clear
11:55 PM 41.0 °F - 14.0 °F 33% 29.95 in 10.0 mi Calm Calm - N/A   Clear